#timestamp,LO_Frequency,Hit 
1500552015.1,286046807.2,N
1500552035.8,286046805.1,N
1500552055.7,286046805.3,N
1500552075.5,286046805.7,N
1500552095.3,286046805.9,N
1500552115.2,286046803.1,N
1500552135.0,286046803.9,N
1500552135.9,286046803.9,N
1500552155.7,286046803.4,N
1500552175.6,286046801.8,N
1500552195.4,286046803.8,N
1500552215.2,286046803.5,N
1500552235.1,286046804.0,N
1500552236.0,286046804.0,N
1500552255.8,286046802.0,N
1500552275.6,286046802.2,N
1500552295.5,286046800.1,N
1500552315.3,286046802.3,N
1500552335.1,286046799.8,N
1500552355.9,286046802.7,N
1500552375.7,286046799.8,N
1500552395.5,286046800.2,N
1500552415.4,286046800.6,N
1500552435.2,286046801.0,N
1500552455.0,286046798.7,N
1500552455.9,286046798.7,N
1500552475.8,286046798.8,N
1500552495.6,286046798.9,N
1500552515.4,286046798.1,N
1500552535.3,286046798.1,N
1500552555.1,286046798.4,N
1500552556.0,286046798.4,N
1500552575.8,286046798.8,N
1500552595.7,286046798.6,N
1500552615.5,286046799.0,N
1500552635.3,286046798.9,N
1500552655.2,286046799.3,N
1500552675.9,286046795.3,N
1500552695.7,286046795.8,N
1500552715.6,286046796.0,N
1500552735.4,286046796.4,N
1500552755.2,286046796.0,N
1500552775.0,286046793.4,N
1500552775.9,286046793.4,N
1500552795.8,286046793.5,N
1500552815.6,286046793.7,N
1500552835.4,286046793.8,N
1500552855.3,286046794.5,N
1500552875.1,286046793.6,N
1500552895.8,286046793.5,N
1500552915.7,286046793.9,N
1500552935.5,286046793.6,N
1500552955.3,286046792.5,N
1500552975.2,286046792.9,N
1500552995.9,286046792.7,N
1500553015.7,286046790.8,N
1500553035.6,286046792.4,N
1500553055.4,286046792.7,N
1500553075.2,286046790.5,N
1500553095.1,286046790.5,N
1500553096.0,286046790.5,N
1500553115.8,286046792.2,N
1500553135.6,286046790.1,N
1500553155.5,286046793.0,N
1500553175.3,286046790.4,N
1500553195.1,286046792.2,N
1500553215.9,286046792.7,N
1500553235.7,286046792.1,N
1500553255.5,286046792.9,N
1500553275.3,286046792.7,N
1500553295.2,286046790.1,N
1500553315.0,286046791.1,N
1500553315.9,286046791.1,N
1500553335.7,286046788.9,N
1500553355.6,286046791.6,N
1500553375.4,286046790.9,N
1500553395.2,286046790.3,N
1500553415.1,286046790.5,N
1500553416.0,286046790.5,N
1500553435.8,286046790.1,N
1500553455.6,286046791.5,N
1500553475.5,286046789.5,N
1500553495.3,286046788.9,N
1500553515.1,286046788.7,N
1500553535.9,286046791.3,N
1500553555.7,286046791.3,N
1500553575.5,286046789.6,N
1500553595.4,286046787.6,N
1500553615.2,286046785.6,N
1500553635.0,286046785.4,N
1500553635.9,286046785.4,N
1500553655.8,286046786.1,N
1500553675.6,286046786.6,N
1500553695.4,286046786.0,N
1500553715.3,286046785.8,N
1500553735.1,286046786.0,N
1500553736.0,286046786.0,N
1500553755.8,286046786.7,N
1500553775.7,286046786.6,N
1500553795.5,286046786.5,N
1500553815.3,286046786.0,N
1500553835.2,286046786.6,N
1500553855.9,286046786.7,N
1500553875.7,286046786.1,N
1500553895.5,286046786.6,N
1500553915.4,286046786.8,N
1500553935.2,286046786.5,N
1500553955.0,286046788.0,N
1500553955.9,286046788.0,N
1500553975.8,286046788.3,N
1500553995.6,286046786.4,N
1500554015.4,286046788.2,N
1500554035.3,286046786.9,N
1500554055.1,286046786.6,N
1500554075.8,286046786.4,N
1500554095.7,286046784.6,N
1500554115.5,286046785.3,N
1500554135.3,286046784.2,N
1500554155.2,286046783.3,N
1500554175.9,286046783.2,N
1500554195.7,286046781.2,N
1500554215.6,286046785.2,N
1500554235.4,286046782.9,N
1500554255.2,286046782.3,N
1500554275.1,286046782.4,N
1500554276.0,286046782.4,N
1500554295.8,286046782.3,N
1500554315.6,286046784.8,N
1500554335.5,286046783.1,N
1500554355.3,286046782.1,N
1500554375.1,286046783.0,N
1500554395.9,286046782.7,N
1500554415.7,286046783.0,N
1500554435.5,286046783.3,N
1500554455.4,286046781.2,N
1500554475.2,286046783.1,N
1500554495.0,286046783.3,N
1500554495.9,286046783.3,N
1500554515.8,286046782.2,N
1500554535.6,286046785.2,N
1500554555.4,286046785.1,N
1500554575.2,286046782.5,N
1500554595.1,286046782.5,N
1500554596.0,286046782.5,N
1500554615.8,286046782.6,N
1500554635.6,286046784.1,N
1500554655.5,286046782.7,N
1500554675.3,286046782.9,N
1500554695.1,286046782.8,N
1500554715.9,286046783.1,N
1500554735.7,286046781.1,N
1500554755.5,286046778.9,N
1500554775.4,286046781.5,N
1500554795.2,286046780.4,N
1500554815.0,286046777.4,N
1500554815.9,286046777.4,N
1500554835.8,286046778.5,N
1500554855.6,286046779.5,N
1500554875.4,286046781.5,N
1500554895.3,286046782.0,N
1500554915.1,286046779.9,N
1500554916.0,286046779.9,N
1500554935.8,286046777.5,N
1500554955.7,286046775.8,N
1500554975.5,286046775.8,N
1500554995.3,286046776.1,N
1500555015.2,286046776.4,N
1500555035.9,286046777.1,N
1500555055.7,286046776.6,N
1500555075.6,286046778.8,N
1500555095.4,286046778.1,N
1500555115.2,286046776.1,N
1500555135.0,286046777.9,N
1500555136.0,286046777.9,N
1500555155.8,286046778.1,N
1500555175.6,286046778.0,N
1500555195.4,286046778.6,N
1500555215.3,286046776.7,N
1500555235.1,286046776.5,N
1500555255.8,286046776.8,N
1500555275.7,286046776.7,N
1500555295.5,286046774.7,N
1500555315.3,286046773.7,N
1500555335.2,286046772.9,N
1500555355.9,286046774.9,N
1500555375.7,286046774.9,N
1500555395.6,286046774.6,N
1500555415.4,286046778.7,N
1500555435.2,286046776.8,N
1500555455.1,286046776.9,N
1500555456.0,286046776.9,N
1500555475.8,286046775.0,N
1500555495.6,286046772.5,N
1500555515.5,286046775.0,N
1500555535.3,286046775.1,N
1500555555.1,286046777.1,N
1500555575.9,286046774.5,N
1500555595.7,286046774.5,N
